Regional Weather Roundup
Issued by NWS

Home | Current Version | Previous Version | Text Only | Print | Product List | Glossary On
Versions: 1 2 3 4 5 6 7 8 9 10 11 12 13 14 15 16 17 18 19 20 21 22 23 24 25 26 27 28 29 30 31 32 33 34 35 36 37 38 39 40 41 42 43 44 45 46 47 48 49 50
000
ASUS43 KDTX 290101
RWRMI
MICHIGAN HOURLY REGIONAL WEATHER ROUNDUP
NATIONAL WEATHER SERVICE DETROIT/PONTIAC MI
800 PM EST WED JAN 28 2015

NOTE: "FAIR" INDICATES FEW OR NO CLOUDS BELOW 12,000 FEET WITH NO
SIGNIFICANT WEATHER AND/OR OBSTRUCTION TO VISIBILITY.

MIZ047>049-052>055-059>063-066>070-074>076-081>083-290200-
SOUTHEAST LOWER MICHIGAN

CITY           SKY/WX    TMP DP  RH WIND       PRES   REMARKS
ADRIAN         CLEAR     22  15  75 S8        30.22F WCI  12
ALMA           MOCLDY    27  13  56 SE9       30.13F WCI  17
ANN ARBOR      MOCLDY    24  15  68 SE7       30.21F WCI  16
BAD AXE        CLOUDY    25  14  62 S13       30.18F WCI  13
CARO           CLOUDY    27  13  55 SE6       30.17F WCI  21
DETROIT CITY   MOCLDY    25  15  66 S12       30.25F WCI  14
DETROIT        CLOUDY    23  14  68 SE7       30.25F WCI  15
FLINT          CLOUDY    28  15  58 S12       30.17F WCI  18
GROSSE ILE     CLOUDY    23  18  80 SE8       30.24F WCI  14
HILLSDALE      PTCLDY    22  14  70 SE10G17   30.14F WCI  11
HOWELL         MOCLDY    25   9  51 SE13      30.17F WCI  13

CITY           SKY/WX    TMP DP  RH WIND       PRES   REMARKS
JACKSON        PTCLDY    22  11  62 SE13      30.15F WCI  10
LAMBERTVILLE   MOCLDY    27  14  59 SE6       30.23F WCI  20
LANSING        MOCLDY    26   7  44 SE14      30.14F WCI  14
LAPEER         FAIR      26  11  53 S8        30.20S WCI  17
MASON          MOCLDY    24   7  48 SE12G18   30.15F WCI  13
MONROE         MOCLDY    23  16  74 S8        30.22F WCI  14
MT. CLEMENS    CLOUDY    22  16  78 S10       30.23F WCI  11
PONTIAC        CLOUDY    23  13  65 S12       30.18F WCI  12
PORT HOPE        N/A     26  17  68 SE7       30.17F WCI  18
PORT HURON     MOCLDY    21  14  73 S8        30.25F WCI  12
TRI CITIES     CLOUDY    29  10  45 S14       30.16F WCI  18
TROY           CLOUDY    26  15  63 S6        30.25F WCI  19
SAGINAW HB     CLOUDY    30  10  43 S12       30.16F WCI  21
$$
MIZ043>046-050>051-056>058-064>065-071>073-077>080-290200-
SOUTHWEST LOWER MICHIGAN

CITY           SKY/WX    TMP DP  RH WIND       PRES   REMARKS
BATTLE CREEK   MOCLDY    26   9  48 SE12      30.11F WCI  16
BENTON HARBOR  CLOUDY    28  14  55 SE17      30.04F WCI  16
BIG RAPIDS     CLOUDY    28  12  53 SE13      30.05F WCI  17
COLDWATER      MOCLDY    24  13  63 S12G18    30.14S WCI  13
FREMONT        FAIR      29   6  38 SE7       30.05F WCI  22
HOLLAND        CLOUDY    29  10  45 SE13      30.06F WCI  19
GRAND RAPIDS   CLOUDY    28   6  39 SE9       30.09F WCI  19
IONIA          FAIR      27  12  53 SE12      30.11F WCI  17
KALAMAZOO      MOCLDY    26  11  52 SE10      30.10F WCI  16
LUDINGTON      CLOUDY    31   8  39 SE13G22   30.01F WCI  21
MARSHALL       MOCLDY    24   9  53 SE8       30.13F WCI  15
MOUNT PLEASANT MOCLDY    27  15  59 SE8       30.11F WCI  19
MUSKEGON       CLOUDY    29  11  47 SE16      30.05F WCI  17
SOUTH HAVEN    CLOUDY    30   8  39 SE12G18   30.05F WCI  20
$$
MIZ016>042-290200-
NORTHERN LOWER MICHIGAN

CITY           SKY/WX    TMP DP  RH WIND       PRES   REMARKS
ALPENA         CLOUDY    26  13  57 S12       30.14F WCI  16
BEAVER ISLAND  CLOUDY    28  17  66 CALM      30.04F
BELLAIRE       CLOUDY    30  12  46 SE9G17    30.07F WCI  22
CADILLAC       CLOUDY    25  11  55 SE12      30.03F WCI  14
CHARLEVOIX     CLOUDY    29  12  49 SE8       30.07F WCI  21
FRANKFORT      CLOUDY    30  10  44 SE8       30.01F WCI  22
GAYLORD        CLOUDY    25   8  48 S13       30.04F WCI  14
GRAYLING       CLOUDY    28  11  48 SE8       30.08F WCI  20
HARBOR SPRINGS CLOUDY    27   7  42 CALM      30.06F
HOUGHTON LAKE  CLOUDY    25  11  55 SE9       30.08F WCI  15
MANISTEE       CLOUDY    28   9  43 SE10      30.02F WCI  19
OSCODA         CLOUDY    26  14  61 S6        30.16F WCI  19
PELLSTON       CLOUDY    28   9  44 SE5       30.06F WCI  23
ROGERS CITY    CLOUDY    27  16  63 SE7       30.12F WCI  20
TRAVERSE CITY  CLOUDY    30  11  45 SE7       30.04F WCI  23
$$
MIZ007>008-015-290200-
EASTERN UPPER MICHIGAN

CITY           SKY/WX    TMP DP  RH WIND       PRES   REMARKS
KINROSS        CLOUDY    23  16  74 SE8       30.08S WCI  14
MACKINAC ISLAN CLOUDY    28  16  58 E7        30.06F WCI  21
NEWBERRY       CLOUDY    23  18  82 SE9       30.02F WCI  13
S. S. MARIE    CLOUDY    21  11  65 E6        30.08F WCI  13
MUNISING         N/A     33  26  75 S17G28    29.94F WCI  22
$$
MIZ004>006-011>014-085-290200-
CENTRAL UPPER MICHIGAN

CITY           SKY/WX    TMP DP  RH WIND       PRES   REMARKS
MANISTIQUE     CLOUDY    30  26  84 S14       30.01F WCI  20
ESCANABA       CLOUDY    30  25  80 S10       29.98F WCI  21
MENOMINEE      CLOUDY    30  27  86 S12G17    29.95F WCI  21
SAWYER-GWINN   CLOUDY    28  25  86 S20       29.91F WCI  15
$$
MIZ001>003-009>011-084-290200-
WESTERN UPPER MICHIGAN

CITY           SKY/WX    TMP DP  RH WIND       PRES   REMARKS
IRON MOUNTAIN  CLOUDY    27  22  81 SE13      29.89F WCI  16
HOUGHTON       CLOUDY    29  22  75 E8        29.83F WCI  21
COPPER HARBOR    N/A     31  22  69 SW10G28   29.83F WCI  22
IRONWOOD       CLOUDY    30  23  74 SW8       29.82R WCI  23
$$

ABBREVIATIONS USED IN REMARKS
   TC - TEMPERATURE IN CELSIUS
  WCI - WIND CHILL INDEX
   HX - HEAT INDEX
  VSB - VISIBILITY



USA.gov is the U.S. government's official web portal to all federal, state and local government web resources and services.